Gainesville, GA

4:37 AM EDT on October 23, 2019 (GMT -0400)
Gilmer Memorial

Weather History for KGVL - August, 2019

Change the Weather History Date:

Wednesday, August 21, 2019

  Actual Average Record
Temperature  
Mean Temperature 80 °F 78 °F  
Max Temperature 90 °F 87 °F 101 °F (1951)
Min Temperature 70 °F 69 °F 53 °F (1943)
Cooling Degree Days 15 13  
Month to date cooling degree days 329 285  
Year to date cooling degree days 1402 1207  
Since 1 June cooling degree days 1066 1032  
Growing Degree Days 30 (Base 50)    
Moisture  
Dew Point 71 °F    
Average Humidity 74    
Maximum Humidity 100    
Minimum Humidity 47    
Precipitation  
Precipitation T in 0.13 in 1.50 in (1942)
Month to date precipitation 2.13 3.24  
Year to date precipitation 36.97 35.06  
Sea Level Pressure  
Sea Level Pressure 30.08 in    
Wind  
Wind Speed 6 mph (SW)    
Max Wind Speed 13 mph    
Max Gust Speed 17 mph    
Visibility 10 miles    
Events      
T = Trace of Precipitation, MM = Missing Value Source: NWS Daily Summary

Daily Weather History Graph

Daily Weather History Graph

Search for Another Location

Airport or City:

Astronomy

Aug. 21, 2019 Rise Set
Actual Time 7:00 AM EDT 8:15 PM EDT
Civil Twilight 6:34 AM EDT 8:41 PM EDT
Nautical Twilight 6:03 AM EDT 9:12 PM EDT
Astronomical Twilight 5:30 AM EDT 9:45 PM EDT
Moon 11:48 PM EDT (8/21) 12:21 PM EDT (8/21)
Length of Visible Light 14h 07m
Length of Day
13h 15m
Waning Gibbous, 69% of the Moon is Illuminated
Aug 21
Waning Gibbous
Aug 23
Last Quarter
Aug 30
New
Sep 5
First Quarter
Sep 14
Full

Hourly Weather History & Observations

Time (EDT) Temp. Heat Index Dew Point Humidity Pressure Visibility Wind Dir Wind Speed Gust Speed Precip Events Conditions
12:53 AM 73.0 °F - 71.1 °F 93% 30.10 in 10.0 mi WSW 3.5 mph - N/A   Clear
1:53 AM 73.9 °F - 72.0 °F 93% 30.09 in 10.0 mi Calm Calm - N/A   Partly Cloudy
2:53 AM 73.0 °F - 73.0 °F 100% 30.08 in 10.0 mi Calm Calm - N/A   Clear
3:53 AM 72.0 °F - 71.1 °F 97% 30.07 in 10.0 mi SW 3.5 mph - N/A   Clear
4:53 AM 72.0 °F - 70.0 °F 93% 30.06 in 10.0 mi SW 4.6 mph - N/A   Clear
5:53 AM 71.1 °F - 70.0 °F 96% 30.08 in 10.0 mi WSW 3.5 mph - N/A   Clear
7:53 AM 72.0 °F - 71.1 °F 97% 30.11 in 10.0 mi Calm Calm - N/A   Clear
8:53 AM 75.9 °F - 72.0 °F 87% 30.11 in 10.0 mi West 9.2 mph - N/A   Clear
9:53 AM 79.0 °F - 72.0 °F 79% 30.10 in 10.0 mi West 11.5 mph - N/A   Clear
10:53 AM 82.0 °F 87.4 °F 73.0 °F 74% 30.12 in 10.0 mi Variable 6.9 mph - N/A   Clear
11:53 AM 82.9 °F 88.0 °F 72.0 °F 69% 30.12 in 10.0 mi SW 9.2 mph - N/A   Partly Cloudy
12:53 PM 84.9 °F 90.7 °F 72.0 °F 65% 30.11 in 10.0 mi WSW 10.4 mph - N/A   Partly Cloudy
1:53 PM 86.0 °F 92.2 °F 72.0 °F 63% 30.10 in 10.0 mi SSW 8.1 mph - N/A   Scattered Clouds
2:53 PM 88.0 °F 93.8 °F 71.1 °F 57% 30.09 in 10.0 mi WNW 9.2 mph - N/A   Clear
3:53 PM 89.1 °F 94.1 °F 70.0 °F 53% 30.05 in 10.0 mi WSW 10.4 mph - N/A   Clear
4:53 PM 89.1 °F 93.7 °F 69.1 °F 52% 30.04 in 10.0 mi WSW 9.2 mph - N/A   Clear
5:53 PM 89.1 °F 92.1 °F 66.9 °F 48% 30.03 in 10.0 mi Variable 5.8 mph - N/A   Clear
6:53 PM 88.0 °F 90.7 °F 66.9 °F 49% 30.02 in 10.0 mi WSW 5.8 mph - N/A   Clear
7:53 PM 84.9 °F 89.4 °F 70.0 °F 61% 30.03 in 10.0 mi SW 3.5 mph - N/A   Clear
8:53 PM 82.9 °F 87.0 °F 70.0 °F 65% 30.04 in 10.0 mi South 3.5 mph - N/A   Clear
9:53 PM 81.0 °F 84.9 °F 71.1 °F 72% 30.06 in 10.0 mi Calm Calm - 0.00 in   Partly Cloudy
10:53 PM 82.0 °F 85.9 °F 70.0 °F 67% 30.06 in 10.0 mi SSW 3.5 mph - N/A   Partly Cloudy
11:53 PM 80.1 °F 83.2 °F 70.0 °F 71% 30.06 in 10.0 mi SW 5.8 mph - N/A   Clear